• In Hungary
  • List of Countries
  • For 7 days
  • Water Temperature
  • Satellite Maps
  • Weather Map
  • News
  • Weather Widgets
  • user-avatar
    Login

    Hourly Weather Kyurek

    Today, 17 July, Tuesday

    Time Temperature Precipitation Wind Pressure Humidity
    00:00 +17°C° 0 mm 2 mps 668 mmHg 74%
    01:00 +17°C° 0 mm 2 mps 668 mmHg 71%
    02:00 +17°C° 0 mm 2 mps 668 mmHg 68%
    03:00 +17°C° 0 mm 2 mps 668 mmHg 66%
    04:00 +17°C° 0 mm 2 mps 668 mmHg 64%
    05:00 +18°C° 0 mm 2 mps 668 mmHg 63%
    06:00 +19°C° 0 mm 2 mps 669 mmHg 62%
    07:00 +20°C° 0 mm 2 mps 669 mmHg 59%
    08:00 +23°C° 0 mm 2 mps 669 mmHg 56%
    09:00 +24°C° 0 mm 2 mps 669 mmHg 53%
    10:00 +25°C° 0 mm 2 mps 669 mmHg 52%
    11:00 +26°C° 0 mm 3 mps 669 mmHg 51%
    12:00 +26°C° 0 mm 3 mps 669 mmHg 50%
    13:00 +26°C° 0.1 mm 3 mps 669 mmHg 52%
    14:00 +26°C° 0.1 mm 3 mps 669 mmHg 54%
    15:00 +26°C° 0.1 mm 3 mps 669 mmHg 56%
    16:00 +25°C° 0.7 mm 3 mps 669 mmHg 62%
    17:00 +24°C° 0.7 mm 2 mps 669 mmHg 67%
    18:00 +23°C° 0.7 mm 2 mps 668 mmHg 72%
    19:00 +21°C° 0.1 mm 2 mps 668 mmHg 76%
    20:00 +19°C° 0.1 mm 2 mps 669 mmHg 79%
    21:00 +18°C° 0.1 mm 2 mps 669 mmHg 82%
    22:00 +18°C° 0 mm 2 mps 669 mmHg 78%
    23:00 +18°C° 0 mm 2 mps 668 mmHg 73%

    Tomorrow, 18 July, Wednesday

    Time Temperature Precipitation Wind Pressure Humidity
    00:00 +18°C° 0 mm 2 mps 668 mmHg 68%
    01:00 +18°C° 0 mm 2 mps 668 mmHg 65%
    02:00 +18°C° 0 mm 2 mps 668 mmHg 62%
    03:00 +17°C° 0 mm 2 mps 668 mmHg 59%
    04:00 +18°C° 0 mm 2 mps 668 mmHg 58%
    05:00 +20°C° 0 mm 1 mps 669 mmHg 58%
    06:00 +21°C° 0 mm 1 mps 669 mmHg 58%
    07:00 +21°C° 0 mm 2 mps 669 mmHg 55%
    08:00 +24°C° 0 mm 2 mps 669 mmHg 53%
    09:00 +26°C° 0 mm 3 mps 670 mmHg 50%
    10:00 +27°C° 0 mm 3 mps 670 mmHg 50%
    11:00 +28°C° 0 mm 3 mps 669 mmHg 50%
    12:00 +29°C° 0 mm 4 mps 669 mmHg 50%
    13:00 +28°C° 0 mm 4 mps 669 mmHg 51%
    14:00 +28°C° 0 mm 4 mps 669 mmHg 53%
    15:00 +28°C° 0 mm 4 mps 668 mmHg 55%
    16:00 +27°C° 0 mm 3 mps 668 mmHg 59%
    17:00 +27°C° 0 mm 3 mps 668 mmHg 63%
    18:00 +26°C° 0 mm 2 mps 668 mmHg 67%
    19:00 +24°C° 0 mm 2 mps 668 mmHg 68%
    20:00 +23°C° 0 mm 2 mps 668 mmHg 70%
    21:00 +20°C° 0 mm 2 mps 668 mmHg 71%
    22:00 +20°C° 0 mm 2 mps 668 mmHg 66%
    23:00 +20°C° 0 mm 2 mps 667 mmHg 60%

    Day after tomorrow, 19 July, Thursday

    Time Temperature Precipitation Wind Pressure Humidity
    00:00 +20°C° 0 mm 2 mps 667 mmHg 55%
    01:00 +20°C° 0 mm 2 mps 667 mmHg 53%
    02:00 +20°C° 0 mm 2 mps 667 mmHg 51%
    03:00 +20°C° 0 mm 2 mps 667 mmHg 49%
    04:00 +21°C° 0 mm 2 mps 667 mmHg 50%
    05:00 +21°C° 0 mm 2 mps 667 mmHg 51%
    06:00 +23°C° 0 mm 2 mps 667 mmHg 52%
    07:00 +25°C° 0 mm 2 mps 667 mmHg 49%
    08:00 +27°C° 0 mm 2 mps 668 mmHg 46%
    09:00 +29°C° 0 mm 2 mps 668 mmHg 43%
    10:00 +30°C° 0 mm 2 mps 668 mmHg 43%
    11:00 +31°C° 0 mm 3 mps 668 mmHg 43%
    12:00 +33°C° 0 mm 3 mps 668 mmHg 43%
    13:00 +33°C° 0 mm 3 mps 668 mmHg 45%
    14:00 +31°C° 0 mm 3 mps 667 mmHg 46%
    15:00 +31°C° 0 mm 3 mps 667 mmHg 47%
    16:00 +30°C° 0.1 mm 2 mps 667 mmHg 52%
    17:00 +29°C° 0.1 mm 2 mps 667 mmHg 56%
    18:00 +28°C° 0.1 mm 1 mps 667 mmHg 61%
    19:00 +27°C° 0 mm 1 mps 667 mmHg 65%
    20:00 +25°C° 0 mm 1 mps 667 mmHg 70%
    21:00 +23°C° 0 mm 1 mps 667 mmHg 75%
    22:00 +23°C° 0 mm 1 mps 667 mmHg 73%
    23:00 +23°C° 0 mm 2 mps 667 mmHg 71%

    20 July, Friday

    Time Temperature Precipitation Wind Pressure Humidity
    00:00 +23°C° 0 mm 2 mps 667 mmHg 69%
    01:00 +23°C° 0 mm 2 mps 667 mmHg 66%
    02:00 +23°C° 0 mm 2 mps 667 mmHg 63%
    03:00 +23°C° 0 mm 2 mps 667 mmHg 60%
    04:00 +23°C° 0 mm 2 mps 667 mmHg 59%
    05:00 +24°C° 0 mm 2 mps 667 mmHg 57%
    06:00 +25°C° 0 mm 2 mps 668 mmHg 56%
    07:00 +27°C° 0 mm 2 mps 668 mmHg 52%
    08:00 +28°C° 0 mm 2 mps 669 mmHg 49%
    09:00 +30°C° 0 mm 3 mps 669 mmHg 45%
    10:00 +31°C° 0 mm 3 mps 669 mmHg 44%
    11:00 +32°C° 0 mm 4 mps 669 mmHg 44%
    12:00 +33°C° 0 mm 4 mps 669 mmHg 44%
    13:00 +33°C° 0.1 mm 4 mps 669 mmHg 45%
    14:00 +31°C° 0.1 mm 3 mps 668 mmHg 47%
    15:00 +31°C° 0.1 mm 3 mps 668 mmHg 48%
    16:00 +30°C° 0.1 mm 3 mps 668 mmHg 52%
    17:00 +29°C° 0.1 mm 2 mps 668 mmHg 56%
    18:00 +28°C° 0.1 mm 1 mps 668 mmHg 60%
    19:00 +27°C° 0 mm 1 mps 668 mmHg 65%
    20:00 +25°C° 0 mm 1 mps 668 mmHg 70%
    21:00 +24°C° 0 mm 1 mps 668 mmHg 74%
    22:00 +23°C° 0 mm 2 mps 667 mmHg 74%
    23:00 +23°C° 0 mm 2 mps 667 mmHg 74%

    21 July, Saturday

    Time Temperature Precipitation Wind Pressure Humidity
    00:00 +23°C° 0 mm 2 mps 667 mmHg 74%
    01:00 +23°C° 0 mm 2 mps 667 mmHg 73%
    02:00 +23°C° 0 mm 2 mps 667 mmHg 72%
    03:00 +23°C° 0 mm 2 mps 667 mmHg 71%
    04:00 +24°C° 0 mm 2 mps 667 mmHg 69%
    05:00 +24°C° 0 mm 2 mps 668 mmHg 66%
    06:00 +25°C° 0 mm 2 mps 668 mmHg 64%
    07:00 +27°C° 0.1 mm 2 mps 668 mmHg 57%
    08:00 +28°C° 0.1 mm 2 mps 668 mmHg 51%
    09:00 +30°C° 0.1 mm 2 mps 669 mmHg 45%
    10:00 +30°C° 0.3 mm 3 mps 669 mmHg 44%
    11:00 +31°C° 0.3 mm 3 mps 669 mmHg 43%
    12:00 +33°C° 0.3 mm 3 mps 669 mmHg 42%
    13:00 +32°C° 0.4 mm 4 mps 668 mmHg 42%
    14:00 +32°C° 0.4 mm 4 mps 668 mmHg 43%
    15:00 +32°C° 0.4 mm 4 mps 668 mmHg 43%
    16:00 +30°C° 0.2 mm 3 mps 668 mmHg 48%
    17:00 +29°C° 0.2 mm 3 mps 668 mmHg 52%
    18:00 +28°C° 0.2 mm 2 mps 668 mmHg 56%
    19:00 +26°C° 0 mm 2 mps 668 mmHg 60%
    20:00 +25°C° 0 mm 2 mps 668 mmHg 64%
    21:00 +23°C° 0 mm 2 mps 668 mmHg 68%
    22:00 +23°C° 0.1 mm 2 mps 667 mmHg 68%
    23:00 +23°C° 0.1 mm 2 mps 667 mmHg 68%

    22 July, Sunday

    Time Temperature Precipitation Wind Pressure Humidity
    00:00 +23°C° 0.1 mm 2 mps 667 mmHg 68%
    01:00 +23°C° 0.1 mm 2 mps 667 mmHg 67%
    02:00 +23°C° 0.1 mm 2 mps 667 mmHg 67%
    03:00 +23°C° 0.1 mm 2 mps 667 mmHg 66%
    04:00 +23°C° 0.2 mm 2 mps 667 mmHg 65%
    05:00 +24°C° 0.2 mm 2 mps 668 mmHg 65%
    06:00 +24°C° 0.2 mm 2 mps 668 mmHg 64%
    07:00 +26°C° 0.2 mm 2 mps 668 mmHg 59%
    08:00 +27°C° 0.2 mm 3 mps 668 mmHg 54%
    09:00 +28°C° 0.2 mm 3 mps 668 mmHg 49%
    10:00 +29°C° 0.4 mm 3 mps 668 mmHg 48%
    11:00 +30°C° 0.4 mm 4 mps 668 mmHg 47%
    12:00 +30°C° 0.4 mm 4 mps 668 mmHg 45%
    13:00 +30°C° 0.7 mm 4 mps 668 mmHg 46%
    14:00 +30°C° 0.7 mm 4 mps 668 mmHg 47%
    15:00 +30°C° 0.7 mm 3 mps 668 mmHg 48%
    16:00 +29°C° 0.3 mm 3 mps 667 mmHg 51%
    17:00 +28°C° 0.3 mm 2 mps 667 mmHg 54%
    18:00 +27°C° 0.3 mm 2 mps 667 mmHg 57%
    19:00 +26°C° 0 mm 2 mps 667 mmHg 60%
    20:00 +25°C° 0 mm 2 mps 667 mmHg 63%
    21:00 +23°C° 0 mm 2 mps 667 mmHg 67%
    22:00 +23°C° 0 mm 2 mps 667 mmHg 66%
    23:00 +23°C° 0 mm 2 mps 667 mmHg 65%
    Show more